Flag for Laos Weather past 2 weeks in Vientiane, Laos

Now
91 °F

Broken clouds.


Feels Like: 103 °F
Forecast: 78 / 93 °F
Wind: 2 mph from Southwest

Location: Vientiane Airport

Current Time: May 24, 2015 at 1:05:17 PM

Latest Report: May 24, 2015 at 12:30 PM


Visibility: 5 mi

Pressure: 29.71 "Hg

Humidity: 59%

Dew point: 75 °F

Location of VientianeLocation

Historic Weather in Vientiane — Graph

°F

Vientiane temperature yesterday

Maximum temperature yesterday: 95 °F (at 1:30 PM)
Minimum temperature yesterday: 81 °F (at 6:00 AM)
Average temperature yesterday: 88 °F

Past Weeks' High & Low Weather Summary

 TemperatureHumidityPressure
High99 °F (May 11, 4:00 PM)100% (May 12, 6:30 PM)29.89 "Hg (May 12, 6:30 PM)
Low75 °F (May 16, 9:00 PM)11% (May 14, 3:00 PM)29.59 "Hg (May 11, 4:00 PM)
Average87 °F70%29.73 "Hg
* Reported May 9 12:00 Noon — May 24 12:00 Noon, Vientiane, Weather by CustomWeather, © 2015

Note: Actual official high and low records may vary slightly from our data, if they occured in-between our weather recording intervals... More about our weather records

Advertising

Vientiane weather history for previous 24 hours

 ConditionsComfort  
Time TempWeatherWind HumidityBarometerVisibility
12:00 PM
Sun, May 24
91 °FBroken clouds.2 mph59%29.71 "Hg5 mi
11:30 AM91 °FPartly sunny.2 mph63%29.71 "HgN/A
11:00 AM91 °FPartly sunny.2 mph63%29.71 "HgN/A
10:30 AM90 °FScattered clouds.2 mph67%29.74 "HgN/A
10:00 AM90 °FScattered clouds.2 mph67%29.74 "HgN/A
8:30 AM86 °FPartly sunny.2 mph75%29.74 "HgN/A
8:00 AM86 °FPartly sunny.2 mph75%29.74 "HgN/A
7:30 AM84 °FScattered clouds.2 mph79%29.71 "Hg5 mi
7:00 AM82 °FScattered clouds.2 mph84%29.71 "Hg4 mi
6:30 AM82 °FScattered clouds.2 mph79%29.71 "HgN/A
6:00 AM81 °FFog.2 mph84%29.68 "Hg3 mi
11:00 PM
Sat, May 23
84 °FFog.5 mph79%29.71 "Hg1 mi
10:30 PM84 °FFog.2 mph79%29.71 "Hg1 mi
10:00 PM84 °FFog.2 mph79%29.71 "Hg1 mi
9:30 PM86 °FFog.5 mph75%29.68 "Hg2 mi
9:00 PM86 °FFog.7 mph75%29.68 "Hg2 mi
7:30 PM88 °FFog.2 mph70%29.62 "Hg2 mi
7:00 PM90 °FFog.2 mph67%29.62 "Hg3 mi
6:30 PM90 °FBroken clouds.2 mph63%29.65 "HgN/A
6:00 PM90 °FBroken clouds.2 mph63%29.62 "HgN/A
4:00 PM91 °FBroken clouds.5 mph67%29.62 "HgN/A
3:30 PM93 °FPartly sunny.2 mph53%29.62 "HgN/A
3:00 PM95 °FBroken clouds.2 mph50%29.65 "HgN/A
2:30 PM95 °FBroken clouds.2 mph50%29.65 "HgN/A
2:00 PM95 °FBroken clouds.2 mph50%29.68 "HgN/A
1:30 PM95 °FScattered clouds.2 mph50%29.65 "HgN/A
Weather by CustomWeather, © 2015

See weather overviewHow to use our weather pages